map of NQN home
Great Circle Mapper logo
NQN - Airport
Location
City:  Neuquén, Neuquén, Argentina
Name:Presidente Perón
ICAO / IATA:SAZN / NQN

Details
Type:Airport (Aerodrome, Airfield)
Use:Public/Civil
Latitude:38°56'56"S (-38.948999)
Longitude:68°09'21"W (-68.155710)
Datum:WGS 1984
Elevation:895 ft (273 m)
Runways:1
Longest:8432 × 147 ft (2570 × 45 m), paved

Time
Time Zone:UTC-3
Local Time:

Weather
METAR:SAZN 240100Z 25004KT CAVOK 08/M07 Q1025
TAF:SAZN 232300Z 2400/2424 25005KT CAVOK TX11/2418Z TNM02/2411Z
BECMG 2410/2412 27010KT

Related Locations
Nearby:
Farthest:TYN: 12339 mi / 19857 km
Taiyuan [Taiyuan Wusu Intl], Shanxi, CN

Find:

   beyond  
but within

Other Information
Maps:
NOTAMs:
Links:
Sources:

  
flag of Argentina
flag of Neuquén
  

Sectional Chart

Flight Planning
at skyvector.com

Satellite Image

Google Maps Satellite View

 

Copyright © 2004-2014 Karl L. Swartz. All rights reserved.
The Great Circle Mapper name and logo are trademarks of the Great Circle Mapper.
All other trademarks mentioned herein belong to their respective owners.
Please see credits for attibutions and further copyright information.

  Follow gcmap on Facebook Follow gcmap on Twitter

hCard Microformat

Geo Microformat